Location: Newark
(44.3681°N, 100.3364°W)
Time: 13:14:47
(UTC+00:00)

S-56A Canister/Altair - Pass Details

Date: 02 March 2020
Orbit: 634 x 2498 km, 38.9° (Epoch: 04 April)

Event Time Altitude Azimuth Distance (km) Brightness Sun altitude
Rises 18:23:16 0° 271° (W) 5,582 11.8 38.4°
Reaches altitude 10° 18:26:38 10° 269° (W) 4,758 11.6 38.5°
Maximum altitude 18:40:35 67° 192° (SSW) 2,638 11.5 38.7°
Drops below altitude 10° 18:55:10 10° 114° (ESE) 4,943 12.0 38.8°
Sets 18:58:45 0° 112° (ESE) 5,803 12.2 38.8°
